HKE694 VHHH-RJFF

Flight info

Callsign HKE694
Flight time N/A
Altitude 37000
Route DALOL V631 ENVAR M750 MOMPA Y25 GOKYO/N0455F380 Y25 ISKUP
Aircraft A320/M-SDE3FGHIRWY/LB1

Departure

Time N/A
Airport Hong Kong International Airport (VHHH)

Arrival

Time 2026-04-29 13:37
Airport Fukuoka Airport (RJFF)
Time Latitude Longitude Altitude Speed Heading
2026-04-29 12:31 27.89674 125.67543 36986 ft 504 kts 48°
2026-04-29 12:32 27.96196 125.76475 36991 ft 505 kts 48°
2026-04-29 12:32 28.00662 125.82603 36988 ft 505 kts 48°
2026-04-29 12:33 28.05136 125.88754 36995 ft 505 kts 48°
2026-04-29 12:33 28.09606 125.94892 36995 ft 506 kts 48°
2026-04-29 12:34 28.14086 126.01062 37009 ft 506 kts 48°
2026-04-29 12:34 28.18558 126.07239 37005 ft 507 kts 48°
2026-04-29 12:35 28.23005 126.13380 36999 ft 508 kts 48°
2026-04-29 12:35 28.27480 126.19574 36999 ft 508 kts 48°
2026-04-29 12:36 28.31964 126.25781 36997 ft 508 kts 48°
2026-04-29 12:36 28.36455 126.32008 36998 ft 509 kts 48°
2026-04-29 12:37 28.40933 126.38249 37006 ft 509 kts 48°
2026-04-29 12:37 28.45405 126.44487 37010 ft 509 kts 48°
2026-04-29 12:38 28.49859 126.50697 37008 ft 509 kts 48°
2026-04-29 12:38 28.54340 126.56950 37016 ft 509 kts 48°
2026-04-29 12:39 28.58798 126.63167 37028 ft 509 kts 48°
2026-04-29 12:39 28.63273 126.69417 37050 ft 509 kts 48°
2026-04-29 12:40 28.67732 126.75686 37027 ft 509 kts 49°
2026-04-29 12:40 28.72197 126.81969 37029 ft 509 kts 49°
2026-04-29 12:41 28.76622 126.88208 37035 ft 509 kts 49°
2026-04-29 12:41 28.81086 126.94486 37040 ft 509 kts 48°
2026-04-29 12:42 28.85541 127.00770 37037 ft 509 kts 49°
2026-04-29 12:42 28.89998 127.07067 37036 ft 509 kts 49°
2026-04-29 12:43 28.94448 127.13356 37062 ft 509 kts 48°
2026-04-29 12:43 28.98896 127.19665 37059 ft 510 kts 49°
2026-04-29 12:44 29.03335 127.25980 37041 ft 510 kts 49°
2026-04-29 12:44 29.07759 127.32254 37052 ft 509 kts 49°
2026-04-29 12:45 29.12198 127.38568 37066 ft 510 kts 48°
2026-04-29 12:45 29.16638 127.44906 37046 ft 510 kts 49°
2026-04-29 12:46 29.21065 127.51243 37044 ft 510 kts 49°
2026-04-29 12:46 29.25497 127.57584 37068 ft 510 kts 48°
2026-04-29 12:47 29.29932 127.63929 37058 ft 510 kts 48°
2026-04-29 12:47 29.33619 127.69215 37055 ft 511 kts 49°
2026-04-29 12:48 29.38771 127.76617 37047 ft 511 kts 49°
2026-04-29 12:48 29.43201 127.82992 37069 ft 511 kts 48°
2026-04-29 12:49 29.46883 127.88293 37062 ft 511 kts 48°
2026-04-29 12:49 29.51310 127.94698 37064 ft 511 kts 49°
2026-04-29 12:50 29.55733 128.01095 37063 ft 511 kts 49°
2026-04-29 12:50 29.60165 128.07494 37075 ft 512 kts 48°
2026-04-29 12:51 29.64573 128.13875 37068 ft 512 kts 48°
2026-04-29 12:51 29.68999 128.20302 37063 ft 512 kts 49°
2026-04-29 12:52 29.73426 128.26728 37076 ft 513 kts 49°
2026-04-29 12:52 29.77858 128.33180 37075 ft 513 kts 49°
2026-04-29 12:53 29.82281 128.39628 37081 ft 513 kts 49°
2026-04-29 12:53 29.86709 128.46088 37082 ft 514 kts 49°
2026-04-29 12:54 29.91139 128.52570 37085 ft 514 kts 49°
2026-04-29 12:54 29.95538 128.59022 37076 ft 515 kts 49°
2026-04-29 12:55 29.99969 128.65519 37071 ft 515 kts 49°
2026-04-29 12:55 30.04398 128.72036 37074 ft 515 kts 49°
2026-04-29 12:56 30.08820 128.78554 37076 ft 515 kts 49°
2026-04-29 12:56 30.13241 128.85065 37078 ft 515 kts 49°
2026-04-29 12:57 30.17671 128.91588 37096 ft 515 kts 49°
2026-04-29 12:57 30.22083 128.98126 37096 ft 516 kts 49°
2026-04-29 12:58 30.26459 129.04626 37088 ft 516 kts 49°
2026-04-29 12:58 30.30876 129.11172 37106 ft 515 kts 49°
2026-04-29 12:59 30.35291 129.17714 37093 ft 515 kts 49°
2026-04-29 12:59 30.39688 129.24266 37092 ft 515 kts 49°
2026-04-29 13:00 30.44087 129.30841 37089 ft 515 kts 49°
2026-04-29 13:00 30.48481 129.37405 37087 ft 515 kts 49°
2026-04-29 13:01 30.52876 129.43978 37092 ft 515 kts 49°
2026-04-29 13:01 30.57241 129.50522 37091 ft 515 kts 49°
2026-04-29 13:02 30.61632 129.57107 37110 ft 515 kts 49°
2026-04-29 13:02 30.66010 129.63690 37092 ft 515 kts 49°
2026-04-29 13:03 30.70350 129.70244 37088 ft 514 kts 49°
2026-04-29 13:03 30.74719 129.76834 37104 ft 514 kts 49°
2026-04-29 13:04 30.79108 129.83421 37082 ft 514 kts 46°
2026-04-29 13:04 30.84384 129.88820 37079 ft 500 kts 26°
2026-04-29 13:05 30.90623 129.91938 37102 ft 483 kts
2026-04-29 13:05 30.97168 129.92969 37089 ft 473 kts 358°
2026-04-29 13:06 31.03729 129.93688 37088 ft 474 kts 358°
2026-04-29 13:06 31.10296 129.94418 37109 ft 474 kts 358°
2026-04-29 13:07 31.16886 129.95144 37102 ft 475 kts 358°
2026-04-29 13:07 31.23435 129.95872 37099 ft 475 kts 358°
2026-04-29 13:08 31.30022 129.96599 37104 ft 475 kts 357°
2026-04-29 13:08 31.36610 129.97170 37122 ft 474 kts 355°
2026-04-29 13:09 31.43183 129.97623 37115 ft 474 kts 355°
2026-04-29 13:09 31.49772 129.98104 37105 ft 474 kts 355°
2026-04-29 13:10 31.56320 129.98625 37126 ft 475 kts 355°
2026-04-29 13:10 31.62924 129.99166 37109 ft 474 kts 355°
2026-04-29 13:11 31.69504 129.99700 37114 ft 474 kts 355°
2026-04-29 13:11 31.76099 130.00223 37116 ft 474 kts 355°
2026-04-29 13:12 31.82684 130.00741 37116 ft 474 kts 355°
2026-04-29 13:12 31.89272 130.01273 37121 ft 475 kts 355°
2026-04-29 13:13 31.95825 130.01799 37145 ft 475 kts 355°
2026-04-29 13:13 32.02419 130.02323 37138 ft 474 kts 355°
2026-04-29 13:14 32.09011 130.02851 37139 ft 474 kts 355°
2026-04-29 13:14 32.15594 130.03378 37127 ft 474 kts 355°
2026-04-29 13:15 32.22179 130.03910 37134 ft 473 kts 355°
2026-04-29 13:15 32.28711 130.04444 37099 ft 474 kts 355°
2026-04-29 13:15 32.31993 130.04714 36839 ft 473 kts 355°
2026-04-29 13:16 32.35289 130.04985 36613 ft 474 kts 354°
2026-04-29 13:16 32.38586 130.05250 36364 ft 476 kts 354°
2026-04-29 13:16 32.41889 130.05512 36122 ft 477 kts 354°
2026-04-29 13:16 32.45205 130.05774 35872 ft 478 kts 355°
2026-04-29 13:17 32.48531 130.06040 35636 ft 479 kts 355°
2026-04-29 13:17 32.51862 130.06314 35396 ft 481 kts 355°
2026-04-29 13:17 32.55208 130.06591 35179 ft 482 kts 354°
2026-04-29 13:17 32.58517 130.06826 34955 ft 478 kts 351°
2026-04-29 13:18 32.61842 130.06606 34718 ft 467 kts 342°
2026-04-29 13:18 32.64961 130.05895 34492 ft 462 kts 338°
2026-04-29 13:18 32.68113 130.05080 34266 ft 463 kts 338°
2026-04-29 13:18 32.71271 130.04269 34024 ft 464 kts 338°
2026-04-29 13:19 32.74430 130.03464 33766 ft 465 kts 338°
2026-04-29 13:19 32.77605 130.02660 33006 ft 468 kts 338°
2026-04-29 13:19 32.80809 130.01847 32057 ft 473 kts 338°
2026-04-29 13:19 32.84050 130.01023 31073 ft 478 kts 339°
2026-04-29 13:20 32.87316 130.00191 30065 ft 483 kts 339°
2026-04-29 13:20 32.90622 129.99342 28830 ft 489 kts 339°
2026-04-29 13:20 32.93965 129.98486 27669 ft 493 kts 340°
2026-04-29 13:20 32.97314 129.97635 26419 ft 489 kts 340°
2026-04-29 13:21 33.00620 129.96804 25231 ft 479 kts 340°
2026-04-29 13:21 33.03813 129.96003 24109 ft 470 kts 340°
2026-04-29 13:21 33.06989 129.95203 22888 ft 461 kts 340°
2026-04-29 13:21 33.10133 129.94400 21861 ft 461 kts 340°
2026-04-29 13:22 33.13261 129.93590 20923 ft 459 kts 340°
2026-04-29 13:22 33.16381 129.92777 19968 ft 458 kts 340°
2026-04-29 13:22 33.19492 129.91966 19029 ft 457 kts 340°
2026-04-29 13:22 33.22599 129.91161 18054 ft 456 kts 341°
2026-04-29 13:23 33.25688 129.90369 17079 ft 452 kts 341°
2026-04-29 13:23 33.28744 129.89593 16165 ft 446 kts 342°
2026-04-29 13:23 33.31747 129.88833 15276 ft 432 kts 342°
2026-04-29 13:23 33.34632 129.88101 14429 ft 421 kts 342°
2026-04-29 13:24 33.37502 129.87356 13429 ft 423 kts 342°
2026-04-29 13:24 33.40337 129.86615 12651 ft 407 kts 342°
2026-04-29 13:24 33.43091 129.85899 11916 ft 403 kts 343°
2026-04-29 13:24 33.45828 129.85280 11287 ft 400 kts 349°
2026-04-29 13:25 33.48557 129.85243 11145 ft 385 kts
2026-04-29 13:25 33.53584 129.86639 10900 ft 357 kts 12°
2026-04-29 13:25 33.55884 129.87464 10781 ft 343 kts 12°
2026-04-29 13:26 33.58130 129.88268 10657 ft 331 kts 12°
2026-04-29 13:26 33.60305 129.89044 10538 ft 320 kts 12°
2026-04-29 13:26 33.62414 129.89795 10348 ft 313 kts 12°
2026-04-29 13:26 33.64488 129.90533 10192 ft 307 kts 12°
2026-04-29 13:27 33.66540 129.91263 10090 ft 307 kts 12°
2026-04-29 13:27 33.68588 129.91990 9891 ft 308 kts 12°
2026-04-29 13:27 33.70651 129.92721 9482 ft 308 kts 13°
2026-04-29 13:27 33.72702 129.93452 9087 ft 308 kts 13°
2026-04-29 13:28 33.74726 129.94215 8674 ft 302 kts 20°
2026-04-29 13:28 33.76468 129.95589 8154 ft 300 kts 44°
2026-04-29 13:28 33.77632 129.97597 7749 ft 296 kts 67°
2026-04-29 13:28 33.78122 129.99972 7365 ft 292 kts 86°
2026-04-29 13:29 33.78269 130.02402 6981 ft 293 kts 87°
2026-04-29 13:29 33.78413 130.04839 6688 ft 290 kts 87°
2026-04-29 13:29 33.78555 130.07269 6352 ft 289 kts 87°
2026-04-29 13:29 33.78693 130.09652 5977 ft 283 kts 87°
2026-04-29 13:30 33.78831 130.11991 5449 ft 277 kts 87°
2026-04-29 13:30 33.78967 130.14282 5070 ft 273 kts 86°
2026-04-29 13:30 33.79101 130.16545 4697 ft 269 kts 86°
2026-04-29 13:30 33.79232 130.18777 4338 ft 265 kts 86°
2026-04-29 13:31 33.79361 130.20976 3988 ft 262 kts 85°
2026-04-29 13:31 33.79486 130.23091 3869 ft 242 kts 85°
2026-04-29 13:31 33.79601 130.25029 3788 ft 224 kts 85°
2026-04-29 13:31 33.79709 130.26856 3685 ft 214 kts 86°
2026-04-29 13:32 33.79692 130.28617 3592 ft 210 kts 101°
2026-04-29 13:32 33.79191 130.30249 3498 ft 208 kts 122°
2026-04-29 13:32 33.78243 130.31547 3395 ft 208 kts 142°
2026-04-29 13:32 33.77008 130.32451 3299 ft 209 kts 150°
2026-04-29 13:33 33.75747 130.33315 3196 ft 209 kts 150°
2026-04-29 13:33 33.74483 130.34183 3017 ft 209 kts 149°
2026-04-29 13:33 33.73250 130.35029 2806 ft 205 kts 149°
2026-04-29 13:33 33.72024 130.35871 2618 ft 199 kts 149°
2026-04-29 13:34 33.70874 130.36659 2516 ft 183 kts 149°
2026-04-29 13:34 33.69788 130.37404 2311 ft 176 kts 149°
2026-04-29 13:34 33.68739 130.38123 2087 ft 170 kts 149°
2026-04-29 13:34 33.67742 130.38805 1866 ft 160 kts 148°
2026-04-29 13:35 33.66811 130.39444 1677 ft 151 kts 149°
2026-04-29 13:35 33.65931 130.40046 1465 ft 143 kts 149°
2026-04-29 13:35 33.65077 130.40631 1274 ft 140 kts 149°
2026-04-29 13:35 33.64235 130.41208 1085 ft 139 kts 149°
2026-04-29 13:36 33.63397 130.41782 888 ft 138 kts 150°
2026-04-29 13:36 33.62563 130.42350 701 ft 138 kts 149°
2026-04-29 13:36 33.61729 130.42916 527 ft 138 kts 150°
2026-04-29 13:36 33.60898 130.43485 337 ft 137 kts 150°
2026-04-29 13:37 33.60074 130.44053 173 ft 137 kts 149°
2026-04-29 13:37 33.59524 130.44427 54 ft 135 kts 150°
2026-04-29 13:37 33.58792 130.44931 31 ft 101 kts 150°
2026-04-29 13:37 33.58242 130.45308 34 ft 38 kts 150°
2026-04-29 13:38 33.58019 130.45408 38 ft 29 kts 172°
2026-04-29 13:38 33.57893 130.45415 37 ft 22 kts 182°
2026-04-29 13:38 33.57797 130.45266 36 ft 15 kts 249°
2026-04-29 13:38 33.57858 130.45173 37 ft 16 kts 329°
2026-04-29 13:39 33.57927 130.45124 36 ft 19 kts 329°